TimeMST,TemperatureF,Dew PointF,Humidity,Sea Level PressureIn,VisibilityMPH,Wind Direction,Wind SpeedMPH,Gust SpeedMPH,PrecipitationIn,Events,Conditions,WindDirDegrees,DateUTC
12:53 AM,10.0,1.9,70,30.30,10.0,SW,3.5,-,N/A,,Clear,230,2013-03-06 07:53:00
1:53 AM,9.0,1.0,70,30.28,10.0,Calm,Calm,-,N/A,,Clear,0,2013-03-06 08:53:00
2:53 AM,7.0,-0.0,73,30.27,10.0,SSW,3.5,-,N/A,,Clear,210,2013-03-06 09:53:00
3:53 AM,6.1,-0.0,76,30.25,10.0,WSW,3.5,-,N/A,,Clear,250,2013-03-06 10:53:00
4:53 AM,10.0,1.9,70,30.22,10.0,West,4.6,-,N/A,,Clear,260,2013-03-06 11:53:00
5:53 AM,10.9,3.0,70,30.21,10.0,Calm,Calm,-,N/A,,Clear,0,2013-03-06 12:53:00
6:53 AM,9.0,1.9,73,30.22,10.0,WSW,3.5,-,N/A,,Clear,250,2013-03-06 13:53:00
7:53 AM,16.0,6.1,65,30.20,10.0,SSW,5.8,-,N/A,,Clear,210,2013-03-06 14:53:00
8:53 AM,21.0,9.0,60,30.24,10.0,SW,5.8,-,N/A,,Clear,220,2013-03-06 15:53:00
9:53 AM,25.0,10.9,55,30.20,10.0,SW,4.6,-,N/A,,Clear,220,2013-03-06 16:53:00
10:53 AM,28.9,12.9,51,30.17,10.0,SSW,3.5,-,N/A,,Clear,210,2013-03-06 17:53:00
11:53 AM,33.1,15.1,48,30.12,10.0,Calm,Calm,-,N/A,,Clear,0,2013-03-06 18:53:00
12:53 PM,37.9,19.9,48,30.06,10.0,Calm,Calm,-,N/A,,Clear,0,2013-03-06 19:53:00
1:53 PM,42.1,21.0,43,30.01,10.0,Calm,Calm,-,N/A,,Clear,0,2013-03-06 20:53:00
2:53 PM,46.0,23.0,40,29.98,10.0,ENE,3.5,-,N/A,,Clear,60,2013-03-06 21:53:00
3:53 PM,46.9,23.0,39,29.99,10.0,NNE,5.8,-,N/A,,Clear,20,2013-03-06 22:53:00
4:53 PM,45.0,24.1,44,29.98,10.0,Variable,3.5,-,N/A,,Clear,0,2013-03-06 23:53:00
5:53 PM,36.0,25.0,64,30.03,10.0,Calm,Calm,-,N/A,,Clear,0,2013-03-07 00:53:00
6:53 PM,33.1,24.1,70,30.05,10.0,North,9.2,-,N/A,,Clear,350,2013-03-07 01:53:00
7:53 PM,32.0,24.1,73,30.04,10.0,Calm,Calm,-,N/A,,Clear,0,2013-03-07 02:53:00
8:53 PM,30.9,21.9,69,30.03,10.0,SE,3.5,-,N/A,,Clear,130,2013-03-07 03:53:00
9:53 PM,28.9,19.9,69,30.01,10.0,SE,3.5,-,N/A,,Clear,140,2013-03-07 04:53:00
10:53 PM,28.9,19.9,69,30.00,10.0,East,4.6,-,N/A,,Clear,100,2013-03-07 05:53:00
11:53 PM,25.0,18.0,75,29.99,10.0,Calm,Calm,-,N/A,,Clear,0,2013-03-07 06:53:00